Location: Bonnesvalyn
(49.1218°N, 3.3177°E)
Time: 22:23:52
(UTC+00:00)

Cosmos 909 Rocket - Pass Details

Date: 09 February 2023
Orbit: 990 x 2089 km, 65.9° (Epoch: 30 March)

Event Time Altitude Azimuth Distance (km) Brightness Sun altitude
Rises 20:09:45 0° 321° (NW) 4,197 8.0 -31.8°
Reaches altitude 10° 20:12:43 10° 320° (NW) 3,098 7.2 -32.3°
Enters shadow 20:19:27 69° 258° (WSW) 1,115 4.3 -33.4°
